OE3MHU-13 Weather Reports


Display with metric or nautical units.
time (UTC)temp
F
wind
direction
speed
MPH
gust
MPH
rain 1hr
in
rain 24hr
in
rain mn
in
humidity
%
barometer
mb
20260507025517 59 203 5.0 11.0 0.00 0.01 0.00 68 1011.1
20260507025012 59 207 6.0 12.0 0.00 0.01 0.00 68 1011.1
20260507024506 59 213 6.0 13.0 0.00 0.01 0.00 68 1011.1
20260507024000 59 154 7.0 13.0 0.00 0.01 0.00 68 1011.0
20260507023454 59 205 8.0 14.0 0.00 0.01 0.00 69 1011.0
20260507022948 59 181 7.0 14.0 0.00 0.01 0.00 69 1010.9
20260507022441 59 146 5.0 12.0 0.00 0.01 0.00 69 1011.0
20260507021937 59 224 6.0 14.0 0.00 0.01 0.00 69 1010.9
20260507021430 59 203 6.0 14.0 0.00 0.01 0.00 69 1010.9
20260507020924 59 259 6.0 14.0 0.00 0.01 0.00 70 1010.8
20260507020418 59 188 6.0 14.0 0.00 0.01 0.00 70 1010.8
20260507015912 59 174 5.0 12.0 0.00 0.01 0.00 71 1010.8
20260507015407 59 89 6.0 12.0 0.00 0.01 0.00 71 1010.9
20260507014859 59 160 5.0 12.0 0.00 0.01 0.00 71 1011.0
20260507014354 59 250 4.0 12.0 0.00 0.01 0.00 71 1011.0
20260507013848 59 187 4.0 11.0 0.00 0.01 0.00 71 1010.9
20260507013342 59 216 5.0 11.0 0.00 0.01 0.00 71 1010.8
20260507012837 60 219 5.0 10.0 0.00 0.01 0.00 71 1010.7
20260507012331 60 178 5.0 11.0 0.00 0.01 0.00 71 1010.8
20260507011829 60 200 6.0 13.0 0.00 0.01 0.00 71 1010.7
20260507011329 60 163 6.0 13.0 0.00 0.01 0.00 71 1010.6
20260507010828 60 226 5.0 12.0 0.00 0.01 0.00 71 1010.6
20260507010329 60 218 6.0 14.0 0.00 0.01 0.00 70 1010.7
20260507005829 60 219 7.0 14.0 0.00 0.01 0.00 70 1010.6
20260507005328 60 193 7.0 14.0 0.00 0.01 0.00 70 1010.4
20260507004829 60 159 7.0 14.0 0.00 0.01 0.00 70 1010.4
20260507004329 60 190 8.0 15.0 0.00 0.01 0.00 70 1010.3
20260507003829 60 186 8.0 17.0 0.00 0.01 0.00 70 1010.2
20260507003328 60 169 7.0 17.0 0.00 0.01 0.00 70 1010.1
20260507002829 60 210 7.0 14.0 0.00 0.01 0.00 70 1010.0
20260507002329 61 166 8.0 17.0 0.00 0.01 0.00 70 1010.0
20260507001829 61 165 8.0 17.0 0.00 0.01 0.00 70 1010.1
20260507001329 61 292 7.0 16.0 0.00 0.01 0.00 70 1010.1
20260507000829 61 229 5.0 15.0 0.00 0.01 0.00 70 1009.9
20260507000329 61 127 5.0 15.0 0.00 0.01 0.00 70 1010.0
20260506235828 61 216 5.0 11.0 0.00 0.01 0.00 71 1009.9
20260506235323 62 158 5.0 16.0 0.00 0.01 0.00 71 1010.0
20260506234816 62 228 5.0 16.0 0.00 0.01 0.00 71 1009.9
20260506234310 62 195 5.0 12.0 0.00 0.01 0.00 72 1009.9
20260506233805 62 180 5.0 14.0 0.00 0.01 0.00 72 1009.8
20260506233258 62 213 5.0 14.0 0.00 0.01 0.00 72 1009.8
20260506232752 62 256 6.0 13.0 0.00 0.01 0.00 72 1009.8
20260506232246 62 245 6.0 13.0 0.00 0.01 0.00 72 1009.8
20260506231740 62 297 5.0 11.0 0.00 0.01 0.00 72 1009.8
20260506231236 62 211 6.0 18.0 0.00 0.01 0.00 72 1009.7
20260506230736 62 173 7.0 18.0 0.00 0.01 0.00 72 1009.4
20260506230236 62 210 7.0 15.0 0.00 0.01 0.00 71 1009.3
20260506225737 62 176 7.0 15.0 0.00 0.01 0.00 70 1009.2
20260506225236 63 219 8.0 17.0 0.00 0.01 0.00 70 1009.1
20260506224736 63 167 8.0 17.0 0.00 0.01 0.00 69 1009.2
20260506224237 63 234 6.0 14.0 0.00 0.01 0.00 68 1009.1
20260506223736 63 209 5.0 14.0 0.00 0.01 0.00 67 1009.1
20260506223237 63 243 5.0 11.0 0.00 0.01 0.00 66 1008.9
20260506222735 64 214 4.0 9.0 0.00 0.01 0.00 66 1008.8
20260506222235 64 242 3.0 10.0 0.00 0.01 0.00 65 1008.6
20260506221734 64 216 3.0 10.0 0.00 0.01 0.00 65 1008.5
20260506221235 64 220 3.0 7.0 0.00 0.01 0.00 65 1008.5
20260506220735 64 257 3.0 8.0 0.00 0.01 0.00 65 1007.9
20260506220718 64 123 2.0 8.0 0.00 0.01 0.00 65 1008.0
20260506220222 64 205 0.0 2.0 0.00 0.01 0.01 65 1007.8
20260506215232 65 199 0.0 3.0 0.00 0.01 0.01 65 1007.5
20260506214729 65 219 0.0 3.0 0.00 0.01 0.01 64 1007.5
20260506214224 65 236 0.0 2.0 0.00 0.01 0.01 64 1007.4
20260506213717 65 236 1.0 5.0 0.00 0.01 0.01 64 1007.4
20260506213210 65 233 1.0 5.0 0.00 0.01 0.01 64 1007.3
20260506212705 66 143 2.0 9.0 0.00 0.01 0.01 63 1007.3
20260506212159 66 93 5.0 14.0 0.00 0.01 0.01 62 1007.1
20260506212135 66 86 7.0 16.0 0.00 0.01 0.01 62 1006.9
20260506211146 66 46 10.0 16.0 0.00 0.01 0.01 62 1006.9
20260506210640 67 52 9.0 15.0 0.00 0.01 0.01 62 1006.8
20260506210135 67 81 9.0 18.0 0.00 0.01 0.01 62 1006.8
20260506205628 67 92 8.0 18.0 0.00 0.01 0.01 61 1006.7
20260506205123 67 83 6.0 14.0 0.00 0.01 0.01 61 1006.7
20260506204616 67 79 6.0 13.0 0.00 0.01 0.01 61 1006.8
20260506204112 67 103 6.0 11.0 0.00 0.01 0.01 61 1006.8
20260506203605 67 93 6.0 13.0 0.00 0.01 0.01 61 1006.7
20260506203101 67 100 7.0 14.0 0.00 0.01 0.01 60 1006.7
20260506202553 67 85 8.0 16.0 0.00 0.01 0.01 60 1006.5
20260506202047 67 93 9.0 23.0 0.00 0.01 0.01 60 1006.5
20260506201541 68 77 7.0 23.0 0.00 0.01 0.01 60 1006.4
20260506201035 68 61 6.0 14.0 0.00 0.01 0.01 60 1006.5
20260506200529 68 87 9.0 21.0 0.00 0.01 0.01 59 1006.5
20260506200023 68 63 10.0 21.0 0.00 0.01 0.01 59 1006.3
20260506195517 68 73 8.0 17.0 0.00 0.01 0.01 59 1006.1
20260506195011 68 98 8.0 20.0 0.00 0.01 0.01 59 1006.1
20260506194505 68 82 10.0 23.0 0.00 0.01 0.01 59 1006.0
20260506193959 68 63 9.0 23.0 0.00 0.01 0.01 58 1005.9
20260506193456 68 100 9.0 20.0 0.00 0.01 0.01 58 1006.0
20260506192946 69 101 9.0 23.0 0.00 0.01 0.01 58 1005.8
20260506192441 69 73 9.0 23.0 0.00 0.01 0.01 58 1005.7
20260506191935 69 91 8.0 18.0 0.00 0.01 0.01 58 1005.7
20260506191428 69 153 8.0 18.0 0.00 0.01 0.01 58 1005.7
20260506190922 69 72 8.0 14.0 0.00 0.01 0.01 57 1005.6
20260506190417 69 85 8.0 20.0 0.00 0.01 0.01 57 1005.6
20260506185911 69 89 9.0 20.0 0.00 0.01 0.01 57 1005.6
20260506185405 69 86 11.0 20.0 0.00 0.01 0.01 56 1005.5
20260506184858 70 84 12.0 20.0 0.00 0.01 0.01 56 1005.4
20260506184353 70 80 10.0 18.0 0.00 0.01 0.01 56 1005.4
20260506183849 70 84 9.0 21.0 0.00 0.01 0.01 56 1005.4
20260506183341 70 72 10.0 21.0 0.00 0.01 0.01 55 1005.2
20260506182835 70 338 10.0 22.0 0.00 0.01 0.01 55 1005.3
20260506182329 70 150 8.0 17.0 0.00 0.01 0.01 55 1005.2
20260506181823 71 87 9.0 19.0 0.00 0.01 0.01 54 1005.3
20260506181316 71 91 11.0 19.0 0.00 0.01 0.01 54 1005.2
20260506180811 71 34 11.0 20.0 0.00 0.01 0.01 54 1005.2
20260506180305 71 71 11.0 20.0 0.00 0.01 0.01 53 1005.1
20260506175758 71 89 11.0 22.0 0.00 0.01 0.01 53 1005.1
20260506175252 72 112 12.0 23.0 0.00 0.01 0.01 53 1005.1
20260506174747 72 76 11.0 23.0 0.00 0.01 0.01 53 1005.0
20260506174244 72 84 9.0 18.0 0.00 0.01 0.01 53 1005.0
20260506173735 72 100 10.0 21.0 0.00 0.01 0.01 53 1005.0
20260506173229 73 77 10.0 21.0 0.00 0.01 0.01 52 1005.0
20260506172722 73 68 10.0 17.0 0.00 0.01 0.01 52 1005.0
20260506172217 73 75 10.0 24.0 0.00 0.01 0.01 52 1005.1
20260506171710 73 106 14.0 27.0 0.00 0.01 0.01 52 1005.1
20260506171205 73 81 16.0 28.0 0.00 0.01 0.01 51 1004.9
20260506170659 73 68 14.0 28.0 0.00 0.01 0.01 51 1005.0
20260506170153 74 61 11.0 24.0 0.01 0.01 0.01 50 1005.0
20260506165647 74 63 14.0 22.0 0.01 0.01 0.01 50 1005.2
20260506165141 74 68 15.0 27.0 0.01 0.01 0.01 50 1005.0
20260506164635 74 79 13.0 27.0 0.01 0.02 0.01 50 1005.0
20260506164129 74 68 13.0 28.0 0.01 0.02 0.01 50 1005.1
20260506163622 74 83 14.0 28.0 0.01 0.02 0.01 50 1005.1
20260506163117 74 113 12.0 25.0 0.01 0.02 0.01 50 1005.3
20260506162610 74 90 15.0 23.0 0.01 0.02 0.01 50 1005.4
20260506162105 74 87 14.0 31.0 0.01 0.02 0.01 50 1005.4
20260506161559 74 98 13.0 31.0 0.01 0.02 0.01 50 1005.4
20260506161053 74 103 15.0 24.0 0.01 0.02 0.01 50 1005.6
20260506160546 74 78 15.0 26.0 0.01 0.02 0.01 50 1005.6
20260506160042 74 91 12.0 26.0 0.00 0.02 0.00 50 1005.6
20260506155536 75 79 12.0 24.0 0.00 0.02 0.00 49 1005.5
20260506155029 75 102 13.0 24.0 0.00 0.02 0.00 48 1005.6
20260506154523 75 66 12.0 24.0 0.00 0.03 0.00 47 1005.5
20260506154017 76 78 9.0 22.0 0.00 0.03 0.00 46 1005.6
20260506153511 76 87 8.0 22.0 0.00 0.03 0.00 46 1005.6
20260506153005 76 83 9.0 23.0 0.00 0.03 0.00 46 1005.6
20260506152459 76 82 10.0 27.0 0.00 0.04 0.00 46 1005.7
20260506152211 76 74 12.0 27.0 0.00 0.06 0.00 46 1005.7
20260506151447 76 63 17.0 27.0 0.00 0.06 0.00 46 1005.6
20260506150941 76 98 19.0 31.0 0.00 0.06 0.00 46 1005.6
20260506150434 76 72 19.0 31.0 0.00 0.06 0.00 46 1005.6
20260506145928 76 64 19.0 31.0 0.00 0.06 0.00 45 1005.5
20260506145423 76 154 17.0 30.0 0.00 0.06 0.00 44 1005.6
20260506144917 76 80 17.0 28.0 0.00 0.06 0.00 44 1005.7
20260506144415 77 108 18.0 29.0 0.00 0.06 0.00 44 1005.7
20260506143915 77 90 17.0 29.0 0.00 0.06 0.00 43 1005.6
20260506143416 77 72 16.0 26.0 0.00 0.06 0.00 43 1005.7
20260506142915 77 112 16.0 25.0 0.00 0.06 0.00 44 1005.7
20260506142413 77 86 15.0 25.0 0.00 0.06 0.00 43 1005.6
20260506141914 77 100 13.0 25.0 0.00 0.06 0.00 44 1005.8
20260506141414 77 82 14.0 24.0 0.00 0.06 0.00 44 1005.9
20260506140911 77 94 15.0 24.0 0.00 0.06 0.00 44 1005.8
20260506140412 77 89 16.0 27.0 0.00 0.06 0.00 44 1006.0
20260506135911 77 75 16.0 27.0 0.00 0.06 0.00 43 1006.0
20260506135412 77 26 16.0 27.0 0.00 0.06 0.00 43 1006.0
20260506134911 78 162 15.0 27.0 0.00 0.06 0.00 42 1006.1
20260506134411 78 98 13.0 21.0 0.00 0.06 0.00 43 1006.2
20260506133911 78 80 12.0 21.0 0.00 0.06 0.00 43 1006.1
20260506133412 78 322 11.0 17.0 0.00 0.06 0.00 45 1006.2
20260506132911 77 81 11.0 20.0 0.00 0.06 0.00 44 1006.4
20260506132405 77 91 13.0 21.0 0.00 0.06 0.00 43 1006.5
20260506131905 77 91 14.0 26.0 0.00 0.06 0.00 44 1006.6
20260506131405 76 80 17.0 26.0 0.00 0.06 0.00 44 1006.6
20260506130903 76 65 15.0 26.0 0.00 0.06 0.00 43 1006.6
20260506130403 75 83 11.0 24.0 0.00 0.06 0.00 44 1006.6
20260506125903 75 82 9.0 19.0 0.00 0.06 0.00 45 1006.6
20260506125401 75 81 7.0 14.0 0.00 0.06 0.00 45 1006.6
20260506124901 75 70 6.0 14.0 0.00 0.06 0.00 46 1006.7
20260506124401 75 110 6.0 15.0 0.00 0.06 0.00 47 1006.8
20260506123859 74 90 6.0 15.0 0.00 0.06 0.00 48 1006.9
20260506123359 74 96 6.0 14.0 0.00 0.06 0.00 47 1007.0
20260506122859 74 48 7.0 15.0 0.00 0.06 0.00 48 1007.1
20260506122358 74 45 8.0 15.0 0.00 0.06 0.00 48 1007.3
20260506121857 74 91 7.0 17.0 0.00 0.06 0.00 48 1007.4
20260506121358 74 72 9.0 17.0 0.00 0.06 0.00 48 1007.6
20260506120857 74 144 10.0 20.0 0.00 0.06 0.00 49 1007.7
20260506120351 74 89 10.0 20.0 0.00 0.06 0.00 48 1007.7
20260506115847 74 82 8.0 14.0 0.00 0.06 0.00 49 1007.7
20260506115348 74 101 6.0 16.0 0.00 0.06 0.00 47 1007.8
20260506114845 74 103 6.0 16.0 0.00 0.06 0.00 49 1007.8
20260506114343 74 46 9.0 20.0 0.00 0.06 0.00 48 1007.9
20260506113843 75 117 9.0 20.0 0.00 0.06 0.00 49 1008.1
20260506113343 75 77 9.0 22.0 0.00 0.06 0.00 48 1008.0
20260506112843 75 145 12.0 22.0 0.00 0.06 0.00 48 1008.2
20260506112343 75 65 12.0 22.0 0.00 0.06 0.00 49 1008.2
20260506111841 75 65 10.0 22.0 0.00 0.06 0.00 51 1008.2
20260506111342 74 88 11.0 22.0 0.00 0.06 0.00 53 1008.4
20260506110842 73 82 14.0 22.0 0.00 0.06 0.00 52 1008.4
20260506110339 73 108 13.0 22.0 0.00 0.06 0.00 52 1008.5
20260506105838 73 79 12.0 22.0 0.00 0.06 0.00 51 1008.6
20260506105338 73 127 13.0 22.0 0.00 0.06 0.00 52 1008.5
20260506104837 73 84 13.0 22.0 0.00 0.06 0.00 50 1008.7
20260506104337 74 56 12.0 24.0 0.00 0.06 0.00 51 1008.7
20260506103837 74 104 11.0 24.0 0.00 0.06 0.00 52 1008.8
20260506103331 74 51 10.0 20.0 0.00 0.06 0.00 50 1008.8
20260506102830 74 83 9.0 20.0 0.00 0.06 0.00 51 1008.8
20260506102331 74 74 10.0 17.0 0.00 0.06 0.00 51 1008.8
20260506101831 74 80 11.0 22.0 0.00 0.06 0.00 52 1008.8
20260506101331 74 86 11.0 22.0 0.00 0.06 0.00 52 1009.1
20260506100831 74 84 9.0 20.0 0.00 0.06 0.00 52 1009.1
20260506100330 74 64 9.0 17.0 0.00 0.06 0.00 52 1009.2
20260506095831 74 89 7.0 15.0 0.00 0.06 0.00 50 1009.1
20260506095329 74 104 7.0 14.0 0.00 0.06 0.00 50 1009.3
20260506094829 74 86 7.0 14.0 0.00 0.06 0.00 50 1009.4
20260506094329 74 82 7.0 14.0 0.00 0.06 0.00 52 1009.4
20260506093827 73 88 8.0 15.0 0.00 0.06 0.00 53 1009.3
20260506093327 73 84 7.0 15.0 0.00 0.06 0.00 51 1009.4
20260506092827 73 84 8.0 14.0 0.00 0.06 0.00 54 1009.6
20260506092325 72 63 9.0 14.0 0.00 0.06 0.00 53 1009.5
20260506091826 73 81 7.0 13.0 0.00 0.06 0.00 52 1009.7
20260506091325 73 84 8.0 14.0 0.00 0.06 0.00 52 1009.6
20260506090824 73 72 7.0 14.0 0.00 0.06 0.00 52 1009.6
20260506090323 74 70 4.0 13.0 0.00 0.06 0.00 52 1009.6
20260506085823 74 91 4.0 11.0 0.00 0.06 0.00 52 1009.5
20260506085319 73 84 5.0 11.0 0.00 0.06 0.00 52 1009.5
20260506084819 73 82 4.0 9.0 0.00 0.06 0.00 51 1009.5
20260506084319 73 76 3.0 10.0 0.00 0.06 0.00 49 1009.5
20260506083819 73 82 3.0 10.0 0.00 0.06 0.00 51 1009.6
20260506083319 73 96 4.0 13.0 0.00 0.06 0.00 53 1009.6
20260506082819 72 252 4.0 13.0 0.00 0.06 0.00 52 1009.6
20260506082319 73 86 2.0 10.0 0.00 0.06 0.00 50 1009.7
20260506081819 74 49 1.0 6.0 0.00 0.06 0.00 52 1009.8
20260506081319 74 64 0.0 5.0 0.00 0.06 0.00 50 1009.8
20260506080815 74 30 0.0 3.0 0.00 0.06 0.00 51 1009.9
20260506080315 74 79 0.0 3.0 0.00 0.06 0.00 51 1009.8
20260506073314 74 111 0.0 1.0 0.00 0.06 0.00 51 1010.0
20260506072815 74 106 0.0 1.0 0.00 0.06 0.00 52 1009.9
20260506072311 73 110 0.0 1.0 0.00 0.06 0.00 54 1009.9
20260506071811 74 108 0.0 1.0 0.00 0.06 0.00 53 1010.0
20260506071310 74 125 0.0 0.0 0.00 0.06 0.00 54 1010.1
20260506070810 73 169 0.0 2.0 0.00 0.06 0.00 55 1010.1
20260506070311 72 146 0.0 2.0 0.00 0.06 0.00 56 1010.2
20260506062307 66 166 3.0 7.0 0.00 0.06 0.00 62 1010.2
20260506061807 65 225 3.0 7.0 0.00 0.06 0.00 62 1010.2
20260506061307 65 206 3.0 6.0 0.00 0.06 0.00 62 1010.3
20260506060807 65 224 3.0 7.0 0.00 0.06 0.00 63 1010.1
20260506060306 65 212 3.0 7.0 0.00 0.06 0.00 64 1010.2
20260506051258 64 164 3.0 8.0 0.00 0.06 0.00 67 1010.2
20260506050759 64 242 3.0 7.0 0.00 0.06 0.00 68 1010.2
20260506050258 63 206 3.0 7.0 0.00 0.06 0.00 69 1010.1
20260506044752 62 217 4.0 7.0 0.00 0.06 0.00 72 1010.1
20260506044252 62 174 4.0 7.0 0.00 0.06 0.00 72 1010.1
20260506043753 61 160 4.0 6.0 0.00 0.06 0.00 73 1010.0
20260506043251 61 203 3.0 8.0 0.00 0.06 0.00 73 1010.0
20260506042751 61 218 3.0 8.0 0.00 0.06 0.00 74 1009.9
20260506042251 61 224 4.0 8.0 0.00 0.06 0.00 74 1009.9
20260506041751 60 212 4.0 9.0 0.00 0.06 0.00 75 1009.9
20260506041251 60 207 4.0 9.0 0.00 0.06 0.00 75 1009.8
20260506040750 60 203 3.0 8.0 0.00 0.06 0.00 75 1009.8
20260506040251 60 237 3.0 7.0 0.00 0.06 0.00 75 1009.7
20260506035751 60 196 3.0 6.0 0.00 0.06 0.00 75 1009.7
20260506035250 60 181 4.0 6.0 0.00 0.06 0.00 75 1009.5
20260506034750 60 184 3.0 6.0 0.00 0.06 0.00 75 1009.7
20260506034251 60 237 3.0 6.0 0.00 0.06 0.00 75 1009.6
20260506033751 60 219 2.0 7.0 0.00 0.06 0.00 75 1009.5
20260506033250 60 205 2.0 7.0 0.00 0.06 0.00 75 1009.5
20260506032750 61 196 2.0 5.0 0.00 0.06 0.00 75 1009.5
20260506032249 61 212 3.0 8.0 0.00 0.06 0.00 75 1009.4
20260506031749 61 224 3.0 8.0 0.00 0.06 0.00 75 1009.5
20260506031249 61 204 4.0 9.0 0.00 0.06 0.00 74 1009.5
20260506030751 61 209 4.0 9.0 0.00 0.06 0.00 74 1009.5
20260506030249 61 205 3.0 7.0 0.00 0.06 0.00 75 1009.6